OHDAC EFOU-EFTP

Flight info

Callsign OHDAC
Flight time N/A
Altitude 15000
Route MIKNU Y86 BEPEM/N0171 DCT ARBEV
Aircraft DA42/L-SBDGRY/S

Departure

Time 2026-04-27 17:07
Airport Oulu Airport (EFOU)

Arrival

Time N/A
Airport Tampere-Pirkkala Airport (EFTP)
Time Latitude Longitude Altitude Speed Heading
2026-04-27 17:01 64.93136 25.36604 45 ft 0 kts 328°
2026-04-27 17:05 64.93137 25.36603 45 ft 2 kts 328°
2026-04-27 17:05 64.93133 25.36544 45 ft 12 kts 236°
2026-04-27 17:06 64.93022 25.36170 46 ft 23 kts 155°
2026-04-27 17:06 64.92921 25.36521 45 ft 24 kts 159°
2026-04-27 17:06 64.92806 25.36352 46 ft 19 kts 249°
2026-04-27 17:06 64.92842 25.36098 46 ft 15 kts 298°
2026-04-27 17:07 64.92946 25.35690 47 ft 61 kts 302°
2026-04-27 17:07 64.93211 25.34590 169 ft 84 kts 306°
2026-04-27 17:07 64.93391 25.33357 583 ft 85 kts 278°
2026-04-27 17:07 64.93130 25.32035 963 ft 98 kts 233°
2026-04-27 17:08 64.92516 25.31277 1310 ft 106 kts 188°
2026-04-27 17:08 64.91775 25.31289 1646 ft 107 kts 167°
2026-04-27 17:08 64.91030 25.31498 1994 ft 110 kts 164°
2026-04-27 17:08 64.90280 25.31718 2365 ft 108 kts 163°
2026-04-27 17:09 64.89531 25.31933 2728 ft 109 kts 164°
2026-04-27 17:09 64.88780 25.32141 3088 ft 109 kts 163°
2026-04-27 17:09 64.88052 25.32341 3435 ft 109 kts 163°
2026-04-27 17:09 64.87278 25.32552 3804 ft 110 kts 164°
2026-04-27 17:10 64.86522 25.32757 4163 ft 110 kts 164°
2026-04-27 17:10 64.85771 25.32959 4526 ft 109 kts 163°
2026-04-27 17:10 64.85013 25.33160 4890 ft 109 kts 164°
2026-04-27 17:10 64.84264 25.33361 5253 ft 109 kts 163°
2026-04-27 17:11 64.83508 25.33559 5615 ft 109 kts 165°
2026-04-27 17:11 64.82011 25.33954 6325 ft 109 kts 165°
2026-04-27 17:11 64.81262 25.34150 6689 ft 109 kts 164°
2026-04-27 17:12 64.79750 25.34552 7415 ft 110 kts 165°
2026-04-27 17:12 64.78993 25.34750 7784 ft 110 kts 165°
2026-04-27 17:12 64.78228 25.34952 8153 ft 110 kts 165°
2026-04-27 17:13 64.77471 25.35153 8522 ft 110 kts 165°
2026-04-27 17:13 64.76713 25.35354 8889 ft 110 kts 165°
2026-04-27 17:13 64.75941 25.35428 9250 ft 113 kts 178°
2026-04-27 17:13 64.75166 25.35260 9607 ft 113 kts 182°
2026-04-27 17:14 64.74380 25.35042 9968 ft 114 kts 183°
2026-04-27 17:14 64.73603 25.34812 10316 ft 115 kts 183°
2026-04-27 17:14 64.72807 25.34573 10672 ft 115 kts 184°
2026-04-27 17:14 64.72015 25.34334 11017 ft 116 kts 184°
2026-04-27 17:15 64.71213 25.34089 11375 ft 116 kts 185°
2026-04-27 17:15 64.70418 25.33846 11724 ft 117 kts 185°
2026-04-27 17:15 64.69589 25.33593 12029 ft 124 kts 185°
2026-04-27 17:15 64.68700 25.33325 12304 ft 132 kts 185°
2026-04-27 17:16 64.67778 25.33043 12633 ft 135 kts 185°
2026-04-27 17:16 64.66839 25.32754 12971 ft 136 kts 185°
2026-04-27 17:16 64.65895 25.32466 13314 ft 137 kts 185°
2026-04-27 17:16 64.64959 25.32182 13648 ft 137 kts 186°
2026-04-27 17:17 64.64003 25.31891 13976 ft 138 kts 186°
2026-04-27 17:17 64.63042 25.31598 14303 ft 139 kts 186°
2026-04-27 17:17 64.62083 25.31307 14620 ft 140 kts 186°
2026-04-27 17:18 64.60076 25.30699 15064 ft 159 kts 186°
2026-04-27 17:18 64.58913 25.30346 15077 ft 177 kts 187°
2026-04-27 17:18 64.57647 25.29963 15069 ft 189 kts 187°
2026-04-27 17:18 64.56329 25.29566 15065 ft 196 kts 187°
2026-04-27 17:19 64.54954 25.29150 15060 ft 201 kts 186°
2026-04-27 17:19 64.53558 25.28722 15056 ft 203 kts 187°
2026-04-27 17:19 64.52137 25.28295 15059 ft 205 kts 186°
2026-04-27 17:19 64.50720 25.27870 15063 ft 206 kts 186°
2026-04-27 17:20 64.49308 25.27448 15062 ft 206 kts 186°
2026-04-27 17:20 64.47875 25.27018 15061 ft 207 kts 186°
2026-04-27 17:20 64.46455 25.26590 15054 ft 207 kts 186°
2026-04-27 17:20 64.45016 25.26161 15058 ft 207 kts 186°
2026-04-27 17:21 64.43595 25.25741 15059 ft 208 kts 186°
2026-04-27 17:21 64.42147 25.25316 15056 ft 208 kts 186°
2026-04-27 17:21 64.40706 25.24889 15056 ft 208 kts 187°
2026-04-27 17:21 64.39277 25.24465 15053 ft 208 kts 186°
2026-04-27 17:22 64.37843 25.24038 15050 ft 208 kts 186°
2026-04-27 17:22 64.36410 25.23610 15049 ft 208 kts 186°
2026-04-27 17:22 64.34963 25.23179 15048 ft 208 kts 186°
2026-04-27 17:22 64.33523 25.22760 15046 ft 208 kts 186°
2026-04-27 17:23 64.32073 25.22328 15050 ft 208 kts 186°
2026-04-27 17:23 64.30665 25.21742 15046 ft 207 kts 197°
2026-04-27 17:23 64.29284 25.20769 15047 ft 207 kts 198°
2026-04-27 17:23 64.27895 25.19728 15047 ft 208 kts 199°
2026-04-27 17:24 64.26520 25.18679 15049 ft 208 kts 199°
2026-04-27 17:24 64.25133 25.17615 15049 ft 208 kts 199°
2026-04-27 17:24 64.23765 25.16562 15052 ft 208 kts 200°
2026-04-27 17:24 64.22382 25.15495 15049 ft 208 kts 200°
2026-04-27 17:25 64.21021 25.14445 15050 ft 208 kts 200°
2026-04-27 17:25 64.19644 25.13383 15053 ft 208 kts 199°
2026-04-27 17:25 64.18286 25.12338 15056 ft 208 kts 199°
2026-04-27 17:25 64.16912 25.11282 15055 ft 208 kts 199°
2026-04-27 17:26 64.15532 25.10224 15054 ft 208 kts 199°
2026-04-27 17:26 64.14167 25.09176 15050 ft 208 kts 199°
2026-04-27 17:26 64.12797 25.08128 15055 ft 208 kts 199°
2026-04-27 17:26 64.11412 25.07069 15055 ft 208 kts 199°
2026-04-27 17:27 64.10040 25.06020 15056 ft 208 kts 199°
2026-04-27 17:27 64.08680 25.04981 15059 ft 208 kts 199°
2026-04-27 17:27 64.07301 25.03929 15057 ft 208 kts 199°
2026-04-27 17:27 64.05926 25.02883 15058 ft 208 kts 199°
2026-04-27 17:28 64.04546 25.01833 15063 ft 208 kts 199°